Time,TemperatureF,DewpointF,PressureIn,WindDirection,WindDirectionDegrees,WindSpeedMPH,WindSpeedGustMPH,Humidity,HourlyPrecipIn,Conditions,Clouds,dailyrainin,SoftwareType,DateUTC
2013-04-16 00:00:00,61.3,56.8,29.92,ESE,112,0.0,0.0,85,0.00,,BKN250,0.00,VWS V14.01,2013-04-16 04:00:00,
2013-04-16 00:01:00,61.2,56.6,29.92,ESE,112,0.0,0.0,85,0.00,,BKN250,0.00,VWS V14.01,2013-04-16 04:01:00,
2013-04-16 00:02:00,61.2,57.2,29.92,ESE,112,0.0,0.0,87,0.00,,BKN250,0.00,VWS V14.01,2013-04-16 04:02:00,
2013-04-16 00:07:00,61.2,57.2,29.92,SE,146,0.0,0.0,87,0.00,,BKN250,0.00,VWS V14.01,2013-04-16 04:07:00,
2013-04-16 00:12:00,61.0,57.0,29.92,SE,146,0.0,0.0,87,0.00,,BKN250,0.00,VWS V14.01,2013-04-16 04:12:00,
2013-04-16 00:18:00,60.6,57.2,29.92,SE,137,0.0,0.0,88,0.00,,BKN250,0.00,VWS V14.01,2013-04-16 04:18:00,
2013-04-16 00:23:00,60.6,57.2,29.92,SE,137,0.0,0.0,88,0.00,,BKN250,0.00,VWS V14.01,2013-04-16 04:23:00,
2013-04-16 00:28:00,60.4,57.0,29.92,SE,137,0.0,0.0,88,0.00,,BKN250,0.00,VWS V14.01,2013-04-16 04:28:00,
2013-04-16 00:33:00,60.4,57.0,29.92,SE,136,0.0,0.0,88,0.00,,BKN250,0.00,VWS V14.01,2013-04-16 04:33:00,
2013-04-16 00:38:00,60.3,57.3,29.92,SE,137,0.0,0.0,90,0.00,,SCT250,0.00,VWS V14.01,2013-04-16 04:38:00,
2013-04-16 00:43:00,60.3,56.8,29.92,SE,137,0.0,0.0,88,0.00,,SCT250,0.00,VWS V14.01,2013-04-16 04:43:00,
2013-04-16 00:48:00,60.1,57.2,29.92,SE,137,0.0,0.0,90,0.00,,SCT250,0.00,VWS V14.01,2013-04-16 04:48:00,
2013-04-16 00:53:00,59.9,57.0,29.92,SE,137,0.0,0.0,90,0.00,,SCT250,0.00,VWS V14.01,2013-04-16 04:53:00,
2013-04-16 00:58:00,59.7,56.8,29.92,SE,136,0.0,0.0,90,0.00,,SCT250,0.00,VWS V14.01,2013-04-16 04:58:00,
2013-04-16 01:04:00,59.4,56.5,29.92,SE,137,0.0,0.0,90,0.00,,SCT250,0.00,VWS V14.01,2013-04-16 05:04:00,
2013-04-16 01:09:00,59.2,56.8,29.92,SE,137,0.0,0.0,92,0.00,,SCT250,0.00,VWS V14.01,2013-04-16 05:09:00,
2013-04-16 01:14:00,59.0,56.6,29.92,SE,137,0.0,0.0,92,0.00,,SCT250,0.00,VWS V14.01,2013-04-16 05:14:00,
2013-04-16 01:19:00,58.8,56.5,29.92,SE,137,0.0,0.0,92,0.00,,SCT250,0.00,VWS V14.01,2013-04-16 05:19:00,
2013-04-16 01:24:00,58.6,56.8,29.92,SE,137,0.0,0.0,94,0.00,,SCT250,0.00,VWS V14.01,2013-04-16 05:24:00,
2013-04-16 01:29:00,58.5,56.6,29.92,SE,137,0.0,0.0,94,0.00,,SCT250,0.00,VWS V14.01,2013-04-16 05:29:00,
2013-04-16 01:34:00,58.1,56.2,29.92,SE,137,0.0,0.0,94,0.00,,SCT250,0.00,VWS V14.01,2013-04-16 05:34:00,
2013-04-16 01:40:00,57.9,56.6,29.89,SE,137,0.0,0.0,95,0.00,,OVC090,0.00,VWS V14.01,2013-04-16 05:40:00,
2013-04-16 01:45:00,57.9,56.6,29.89,SE,137,0.0,0.0,95,0.00,,OVC090,0.00,VWS V14.01,2013-04-16 05:45:00,
2013-04-16 01:50:00,57.7,56.4,29.89,SE,137,0.0,0.0,95,0.00,,OVC090,0.00,VWS V14.01,2013-04-16 05:50:00,
2013-04-16 01:55:00,57.6,56.2,29.89,SE,137,0.0,0.0,95,0.00,,OVC090,0.00,VWS V14.01,2013-04-16 05:55:00,
2013-04-16 02:00:00,57.4,56.5,29.89,SE,137,0.0,0.0,97,0.00,,OVC090,0.00,VWS V14.01,2013-04-16 06:00:00,
2013-04-16 02:05:00,57.2,57.2,29.89,SE,136,0.0,0.0,100,0.00,,OVC090,0.00,VWS V14.01,2013-04-16 06:05:00,
2013-04-16 02:10:00,57.0,57.0,29.92,SE,137,0.0,0.0,100,0.00,,OVC090,0.00,VWS V14.01,2013-04-16 06:10:00,
2013-04-16 02:15:00,56.8,56.8,29.92,SE,137,0.0,0.0,100,0.00,,OVC090,0.00,VWS V14.01,2013-04-16 06:15:00,
2013-04-16 02:20:00,56.7,56.7,29.92,SE,137,0.0,0.0,100,0.00,,OVC090,0.00,VWS V14.01,2013-04-16 06:20:00,
2013-04-16 02:25:00,56.5,56.5,29.92,SE,137,0.0,0.0,100,0.00,,OVC090,0.00,VWS V14.01,2013-04-16 06:25:00,
2013-04-16 02:30:00,56.3,56.3,29.92,SE,137,0.0,0.0,100,0.00,,OVC090,0.00,VWS V14.01,2013-04-16 06:30:00,
2013-04-16 02:36:00,56.1,56.1,29.92,SE,137,0.0,0.0,100,0.00,,OVC250,0.00,VWS V14.01,2013-04-16 06:36:00,
2013-04-16 02:41:00,55.9,55.9,29.92,SE,137,0.0,0.0,100,0.00,,OVC250,0.00,VWS V14.01,2013-04-16 06:41:00,
2013-04-16 02:46:00,55.6,55.6,29.92,SE,137,0.0,0.0,100,0.00,,OVC250,0.00,VWS V14.01,2013-04-16 06:46:00,
2013-04-16 02:51:00,55.6,55.6,29.92,SE,137,0.0,0.0,100,0.00,,OVC250,0.00,VWS V14.01,2013-04-16 06:51:00,
2013-04-16 02:56:00,55.4,55.4,29.92,SE,137,0.0,0.0,100,0.00,,OVC250,0.00,VWS V14.01,2013-04-16 06:56:00,
2013-04-16 03:01:00,55.4,55.4,29.92,SE,137,0.0,0.0,100,0.00,,OVC250,0.00,VWS V14.01,2013-04-16 07:01:00,
2013-04-16 03:06:00,55.2,55.2,29.92,SE,137,0.0,0.0,100,0.00,,OVC250,0.00,VWS V14.01,2013-04-16 07:06:00,
2013-04-16 03:11:00,55.0,55.0,29.92,SE,136,0.0,0.0,100,0.00,,OVC250,0.00,VWS V14.01,2013-04-16 07:11:00,
2013-04-16 03:17:00,54.9,54.9,29.92,SE,137,0.0,0.0,100,0.00,,OVC250,0.00,VWS V14.01,2013-04-16 07:17:00,
2013-04-16 03:22:00,54.9,54.9,29.92,SE,138,0.0,0.0,100,0.00,,OVC250,0.00,VWS V14.01,2013-04-16 07:22:00,
2013-04-16 03:27:00,54.9,54.9,29.92,SE,138,0.0,0.0,100,0.00,,OVC250,0.00,VWS V14.01,2013-04-16 07:27:00,
2013-04-16 03:32:00,54.9,54.9,29.92,SE,137,0.0,0.0,100,0.00,,OVC250,0.00,VWS V14.01,2013-04-16 07:32:00,
2013-04-16 03:37:00,54.9,54.9,29.92,SW,215,0.0,0.0,100,0.00,,OVC250,0.00,VWS V14.01,2013-04-16 07:37:00,
2013-04-16 03:42:00,54.9,54.9,29.92,SSW,193,3.7,4.7,100,0.00,,OVC250,0.00,VWS V14.01,2013-04-16 07:42:00,
2013-04-16 03:47:00,54.9,54.9,29.92,SSW,193,0.0,0.0,100,0.00,,OVC250,0.00,VWS V14.01,2013-04-16 07:47:00,
2013-04-16 03:52:00,54.9,54.9,29.92,SSW,192,5.2,6.6,100,0.00,,OVC250,0.00,VWS V14.01,2013-04-16 07:52:00,
2013-04-16 03:58:00,55.0,55.0,29.92,SSW,193,3.7,7.5,100,0.00,,OVC250,0.00,VWS V14.01,2013-04-16 07:58:00,
2013-04-16 04:03:00,55.2,55.2,29.92,SSW,204,0.0,7.5,100,0.00,,OVC250,0.00,VWS V14.01,2013-04-16 08:03:00,
2013-04-16 04:08:00,55.4,55.4,29.92,South,181,6.6,8.5,100,0.00,,OVC250,0.00,VWS V14.01,2013-04-16 08:08:00,
2013-04-16 04:13:00,55.9,55.9,29.92,SSW,196,10.3,13.2,100,0.00,,OVC250,0.00,VWS V14.01,2013-04-16 08:13:00,
2013-04-16 04:18:00,56.7,56.7,29.92,SSE,152,8.9,11.3,100,0.00,,OVC250,0.00,VWS V14.01,2013-04-16 08:18:00,
2013-04-16 04:23:00,57.2,57.2,29.92,ESE,123,5.2,6.6,100,0.00,,OVC250,0.00,VWS V14.01,2013-04-16 08:23:00,
2013-04-16 04:28:00,57.9,57.9,29.92,SSE,159,8.9,11.3,100,0.00,,OVC250,0.00,VWS V14.01,2013-04-16 08:28:00,
2013-04-16 04:33:00,58.5,58.5,29.92,SW,217,5.9,11.3,100,0.00,,OVC250,0.00,VWS V14.01,2013-04-16 08:33:00,
2013-04-16 04:38:00,59.0,59.0,29.92,SE,145,8.1,10.3,100,0.00,,OVC250,0.00,VWS V14.01,2013-04-16 08:38:00,
2013-04-16 04:44:00,59.4,59.4,29.92,South,169,4.4,12.2,100,0.00,,OVC250,0.00,VWS V14.01,2013-04-16 08:44:00,
2013-04-16 04:49:00,59.9,59.9,29.92,South,185,6.6,12.2,100,0.00,,OVC250,0.00,VWS V14.01,2013-04-16 08:49:00,
2013-04-16 04:54:00,60.3,60.3,29.95,SSW,198,5.2,6.6,100,0.00,,OVC250,0.00,VWS V14.01,2013-04-16 08:54:00,
2013-04-16 04:59:00,60.6,60.6,29.95,South,183,10.3,13.2,100,0.00,,OVC250,0.00,VWS V14.01,2013-04-16 08:59:00,
2013-04-16 05:04:00,61.2,61.2,29.95,WSW,244,5.9,11.3,100,0.00,,OVC250,0.00,VWS V14.01,2013-04-16 09:04:00,
2013-04-16 05:09:00,61.3,61.3,29.95,South,176,4.4,8.5,100,0.00,,OVC250,0.00,VWS V14.01,2013-04-16 09:09:00,
2013-04-16 05:14:00,61.9,61.9,29.95,South,185,7.4,17.4,100,0.00,,OVC250,0.00,VWS V14.01,2013-04-16 09:14:00,
2013-04-16 05:20:00,62.2,62.2,29.95,SSW,199,5.2,12.2,100,0.00,,OVC250,0.00,VWS V14.01,2013-04-16 09:20:00,
2013-04-16 05:25:00,62.8,62.8,29.95,SSW,203,4.4,6.6,100,0.00,,OVC250,0.00,VWS V14.01,2013-04-16 09:25:00,
2013-04-16 05:30:00,63.1,63.1,29.95,SE,139,12.5,18.3,100,0.00,,OVC250,0.00,VWS V14.01,2013-04-16 09:30:00,
2013-04-16 05:35:00,63.5,63.5,29.95,South,182,13.3,16.9,100,0.00,,OVC060,0.00,VWS V14.01,2013-04-16 09:35:00,
2013-04-16 05:40:00,63.9,63.9,29.95,South,172,4.4,7.5,100,0.00,,OVC060,0.00,VWS V14.01,2013-04-16 09:40:00,
2013-04-16 05:45:00,64.4,64.4,29.95,SW,232,8.1,10.3,100,0.00,,OVC060,0.00,VWS V14.01,2013-04-16 09:45:00,
2013-04-16 05:51:00,64.6,64.6,29.95,South,176,4.4,13.2,100,0.00,,OVC060,0.00,VWS V14.01,2013-04-16 09:51:00,
2013-04-16 05:56:00,64.8,64.8,29.95,WSW,240,6.6,12.2,100,0.00,,OVC042,0.00,VWS V14.01,2013-04-16 09:56:00,
2013-04-16 06:01:00,64.9,64.9,29.95,SW,227,6.6,12.2,100,0.00,,OVC042,0.00,VWS V14.01,2013-04-16 10:01:00,
2013-04-16 06:06:00,65.1,65.1,29.95,SW,214,9.6,18.3,100,0.00,,OVC042,0.00,VWS V14.01,2013-04-16 10:06:00,
2013-04-16 06:11:00,65.1,65.1,29.98,WSW,244,8.9,11.3,100,0.00,,OVC042,0.00,VWS V14.01,2013-04-16 10:11:00,
2013-04-16 06:17:00,65.3,65.3,29.98,SW,232,6.6,23.0,100,0.00,,OVC042,0.00,VWS V14.01,2013-04-16 10:17:00,
2013-04-16 06:22:00,65.5,65.5,29.98,SW,217,0.0,10.3,100,0.00,,OVC042,0.00,VWS V14.01,2013-04-16 10:22:00,
2013-04-16 06:27:00,65.5,65.5,29.98,South,176,5.9,8.5,100,0.00,,OVC042,0.00,VWS V14.01,2013-04-16 10:27:00,
2013-04-16 06:32:00,65.7,65.7,29.98,SSE,159,5.9,7.5,100,0.00,,OVC042,0.00,VWS V14.01,2013-04-16 10:32:00,
2013-04-16 06:37:00,65.8,65.8,29.98,South,180,9.6,17.4,100,0.00,,OVC075,0.00,VWS V14.01,2013-04-16 10:37:00,
2013-04-16 06:42:00,65.7,65.7,29.98,WSW,254,14.4,18.3,100,0.00,,OVC075,0.00,VWS V14.01,2013-04-16 10:42:00,
2013-04-16 06:47:00,65.8,65.8,29.98,WSW,258,5.2,13.2,100,0.00,,OVC075,0.00,VWS V14.01,2013-04-16 10:47:00,
2013-04-16 06:52:00,66.0,66.0,29.98,West,259,5.2,12.2,100,0.00,,OVC075,0.00,VWS V14.01,2013-04-16 10:52:00,
2013-04-16 06:58:00,65.8,65.8,29.98,SSW,194,5.2,8.5,100,0.00,,OVC075,0.00,VWS V14.01,2013-04-16 10:58:00,
2013-04-16 07:03:00,66.2,66.2,29.98,South,190,13.3,23.0,100,0.00,,OVC075,0.00,VWS V14.01,2013-04-16 11:03:00,
2013-04-16 07:08:00,66.4,66.4,30.01,SSE,155,0.0,11.3,100,0.00,,OVC075,0.00,VWS V14.01,2013-04-16 11:08:00,
2013-04-16 07:13:00,66.2,66.2,30.01,WSW,238,13.7,17.4,100,0.00,,OVC075,0.00,VWS V14.01,2013-04-16 11:13:00,
2013-04-16 07:18:00,66.6,66.6,30.01,WSW,254,8.9,11.3,100,0.00,,OVC075,0.00,VWS V14.01,2013-04-16 11:18:00,
2013-04-16 07:24:00,66.6,66.2,30.01,SW,229,5.9,12.2,99,0.00,,OVC075,0.00,VWS V14.01,2013-04-16 11:24:00,
2013-04-16 07:28:00,66.4,66.4,30.01,West,262,3.7,16.0,100,0.00,,OVC075,0.00,VWS V14.01,2013-04-16 11:28:00,
2013-04-16 07:34:00,66.4,66.4,30.01,SSW,204,9.6,15.0,100,0.00,,OVC075,0.00,VWS V14.01,2013-04-16 11:34:00,
2013-04-16 07:39:00,66.6,66.6,30.04,SSE,164,5.9,14.1,100,0.00,,OVC140,0.00,VWS V14.01,2013-04-16 11:39:00,
2013-04-16 07:44:00,66.4,66.4,30.04,WSW,251,9.6,16.9,100,0.00,,OVC140,0.00,VWS V14.01,2013-04-16 11:44:00,
2013-04-16 07:49:00,66.4,66.4,30.04,SSW,206,9.6,17.4,100,0.00,,OVC140,0.00,VWS V14.01,2013-04-16 11:49:00,
2013-04-16 07:54:00,66.4,66.4,30.04,SSE,157,8.9,11.3,100,0.00,,OVC140,0.00,VWS V14.01,2013-04-16 11:54:00,
2013-04-16 07:59:00,66.4,66.4,30.04,WSW,242,13.3,16.9,100,0.00,,OVC140,0.00,VWS V14.01,2013-04-16 11:59:00,
2013-04-16 08:04:00,66.2,66.2,30.04,West,260,8.9,13.2,100,0.00,,OVC140,0.00,VWS V14.01,2013-04-16 12:04:00,
2013-04-16 08:09:00,66.2,66.2,30.04,SW,214,4.4,5.6,100,0.00,,OVC140,0.00,VWS V14.01,2013-04-16 12:09:00,
2013-04-16 08:14:00,66.2,66.2,30.04,SW,215,9.6,21.1,100,0.00,,OVC140,0.00,VWS V14.01,2013-04-16 12:14:00,
2013-04-16 08:19:00,66.2,66.2,30.04,SSW,213,3.7,10.3,100,0.00,,OVC140,0.00,VWS V14.01,2013-04-16 12:19:00,
2013-04-16 08:24:00,66.4,66.4,30.04,SW,215,6.6,8.5,100,0.00,,OVC140,0.00,VWS V14.01,2013-04-16 12:24:00,
2013-04-16 08:29:00,66.4,66.4,30.04,WSW,256,10.3,13.2,100,0.00,,OVC140,0.00,VWS V14.01,2013-04-16 12:29:00,
2013-04-16 08:34:00,66.9,66.9,30.04,SW,217,5.9,10.3,100,0.00,,OVC140,0.00,VWS V14.01,2013-04-16 12:34:00,
2013-04-16 08:40:00,66.9,66.9,30.07,South,180,4.4,7.5,100,0.00,,OVC140,0.00,VWS V14.01,2013-04-16 12:40:00,
2013-04-16 08:45:00,66.7,66.7,30.07,WSW,250,8.1,10.3,100,0.00,,OVC140,0.00,VWS V14.01,2013-04-16 12:45:00,
2013-04-16 08:50:00,66.6,66.6,30.07,WSW,240,8.9,11.3,100,0.00,,OVC140,0.00,VWS V14.01,2013-04-16 12:50:00,
2013-04-16 08:55:00,66.0,66.0,30.07,West,260,6.6,8.5,100,0.00,,,0.00,VWS V14.01,2013-04-16 12:55:00,
2013-04-16 09:00:00,66.2,66.2,30.07,WSW,244,5.9,7.5,100,0.00,,,0.00,VWS V14.01,2013-04-16 13:00:00,
2013-04-16 09:05:00,66.6,66.6,30.07,WSW,258,8.9,12.2,100,0.00,,,0.00,VWS V14.01,2013-04-16 13:05:00,
2013-04-16 09:10:00,66.2,66.2,30.07,WSW,240,5.9,7.5,100,0.00,,,0.00,VWS V14.01,2013-04-16 13:10:00,
2013-04-16 09:16:00,66.0,66.0,30.07,West,276,8.1,10.3,100,0.00,,,0.00,VWS V14.01,2013-04-16 13:16:00,
2013-04-16 09:21:00,66.2,66.2,30.07,WSW,241,0.0,0.0,100,0.00,,,0.00,VWS V14.01,2013-04-16 13:21:00,
2013-04-16 09:26:00,66.0,66.0,30.07,WSW,244,5.2,6.6,100,0.00,,,0.00,VWS V14.01,2013-04-16 13:26:00,
2013-04-16 09:31:00,65.8,65.8,30.07,SW,220,3.7,5.6,100,0.00,,,0.00,VWS V14.01,2013-04-16 13:31:00,
2013-04-16 09:37:00,65.8,65.8,30.07,WSW,252,3.7,6.6,100,0.00,,OVC038,0.00,VWS V14.01,2013-04-16 13:37:00,
2013-04-16 09:42:00,66.0,66.0,30.07,South,174,0.0,0.0,100,0.00,,OVC038,0.00,VWS V14.01,2013-04-16 13:42:00,
2013-04-16 09:47:00,66.4,66.4,30.07,South,173,4.4,5.6,100,0.00,,OVC038,0.00,VWS V14.01,2013-04-16 13:47:00,
2013-04-16 09:52:00,66.9,66.9,30.07,WSW,258,5.2,9.4,100,0.00,,OVC038,0.00,VWS V14.01,2013-04-16 13:52:00,
2013-04-16 09:57:00,67.1,67.1,30.04,SW,214,9.6,12.2,100,0.00,,OVC038,0.00,VWS V14.01,2013-04-16 13:57:00,
2013-04-16 10:02:00,67.3,67.3,30.04,WSW,242,5.2,13.2,100,0.00,,OVC038,0.00,VWS V14.01,2013-04-16 14:02:00,
2013-04-16 10:07:00,67.3,67.3,30.04,SSW,200,8.9,11.3,100,0.00,,OVC038,0.00,VWS V14.01,2013-04-16 14:07:00,
2013-04-16 10:12:00,67.1,67.1,30.04,South,180,3.7,8.5,100,0.00,,OVC038,0.00,VWS V14.01,2013-04-16 14:12:00,
2013-04-16 10:18:00,67.3,67.3,30.04,SSW,202,10.3,13.2,100,0.00,,OVC038,0.00,VWS V14.01,2013-04-16 14:18:00,
2013-04-16 10:23:00,67.6,67.6,30.04,WSW,237,9.6,16.0,100,0.00,,OVC038,0.00,VWS V14.01,2013-04-16 14:23:00,
2013-04-16 10:28:00,68.5,68.5,30.04,South,181,5.2,10.3,100,0.00,,OVC038,0.00,VWS V14.01,2013-04-16 14:28:00,
2013-04-16 10:33:00,69.3,69.3,30.04,ESE,122,6.6,8.5,100,0.00,,OVC038,0.00,VWS V14.01,2013-04-16 14:33:00,
2013-04-16 10:38:00,69.8,69.8,30.07,South,171,12.5,16.0,100,0.00,,-RA,0.00,VWS V14.01,2013-04-16 14:38:00,
2013-04-16 10:43:00,70.2,69.2,30.07,West,274,5.2,7.5,97,0.00,,-RA,0.00,VWS V14.01,2013-04-16 14:43:00,
2013-04-16 10:48:00,70.7,69.8,30.07,South,169,8.9,18.3,97,0.00,,-RA,0.00,VWS V14.01,2013-04-16 14:48:00,
2013-04-16 10:53:00,71.2,69.3,30.07,SSW,198,9.6,13.2,94,0.00,,-RA,0.00,VWS V14.01,2013-04-16 14:53:00,
2013-04-16 10:58:00,71.4,68.4,30.07,SSW,195,9.6,18.3,90,0.00,,,0.00,VWS V14.01,2013-04-16 14:58:00,
2013-04-16 11:03:00,71.8,69.3,30.07,WSW,254,5.9,12.2,92,0.00,,,0.00,VWS V14.01,2013-04-16 15:03:00,
2013-04-16 11:08:00,72.3,70.3,30.04,SW,229,18.8,24.0,94,0.00,,,0.00,VWS V14.01,2013-04-16 15:08:00,
2013-04-16 11:14:00,72.9,68.1,30.04,SE,144,8.9,17.4,85,0.00,,,0.00,VWS V14.01,2013-04-16 15:14:00,
2013-04-16 11:19:00,73.2,69.0,30.04,South,170,8.9,18.3,87,0.00,,,0.00,VWS V14.01,2013-04-16 15:19:00,
2013-04-16 11:24:00,73.2,69.0,30.07,WSW,243,13.3,16.9,87,0.00,,,0.00,VWS V14.01,2013-04-16 15:24:00,
2013-04-16 11:29:00,73.2,68.4,30.07,SSW,206,17.3,22.1,85,0.00,,,0.00,VWS V14.01,2013-04-16 15:29:00,
2013-04-16 11:34:00,73.0,68.3,30.07,SW,218,6.6,13.2,85,0.00,,,0.00,VWS V14.01,2013-04-16 15:34:00,
2013-04-16 11:39:00,72.9,68.7,30.07,SSW,212,10.3,13.2,87,0.00,,OVC006,0.00,VWS V14.01,2013-04-16 15:39:00,
2013-04-16 11:44:00,72.9,68.7,30.07,SSW,197,5.9,18.3,87,0.00,,OVC006,0.00,VWS V14.01,2013-04-16 15:44:00,
2013-04-16 11:49:00,73.0,69.4,30.07,WSW,246,11.8,21.1,88,0.00,,OVC006,0.00,VWS V14.01,2013-04-16 15:49:00,
2013-04-16 11:55:00,73.6,68.2,30.07,WSW,255,21.0,26.8,83,0.00,,OVC006,0.00,VWS V14.01,2013-04-16 15:55:00,
2013-04-16 12:00:00,73.8,68.4,30.07,SW,218,4.4,11.3,83,0.00,,OVC006,0.00,VWS V14.01,2013-04-16 16:00:00,
2013-04-16 12:05:00,73.8,67.8,30.07,SSE,149,13.7,17.4,82,0.00,,OVC006,0.00,VWS V14.01,2013-04-16 16:05:00,
2013-04-16 12:10:00,73.4,68.0,30.07,SE,139,12.5,23.0,83,0.00,,OVC006,0.00,VWS V14.01,2013-04-16 16:10:00,
2013-04-16 12:15:00,73.2,67.9,30.07,South,173,5.2,6.6,83,0.00,,OVC006,0.00,VWS V14.01,2013-04-16 16:15:00,
2013-04-16 12:20:00,73.0,67.7,30.07,SW,223,10.3,16.0,83,0.00,,OVC006,0.00,VWS V14.01,2013-04-16 16:20:00,
2013-04-16 12:25:00,73.0,68.8,30.07,SE,139,13.3,16.9,87,0.00,,OVC006,0.00,VWS V14.01,2013-04-16 16:25:00,
2013-04-16 12:30:00,73.0,68.3,30.07,SSW,208,8.9,18.3,85,0.00,,OVC006,0.00,VWS V14.01,2013-04-16 16:30:00,
2013-04-16 12:35:00,73.0,67.7,30.07,SE,138,9.6,12.2,83,0.00,,OVC012,0.00,VWS V14.01,2013-04-16 16:35:00,
2013-04-16 12:40:00,73.0,67.7,30.07,ESE,111,8.9,22.1,83,0.00,,OVC012,0.00,VWS V14.01,2013-04-16 16:40:00,
2013-04-16 12:45:00,73.4,68.6,30.07,SSE,167,9.6,13.2,85,0.00,,OVC012,0.00,VWS V14.01,2013-04-16 16:45:00,
2013-04-16 12:50:00,73.8,69.0,30.07,South,182,8.9,16.9,85,0.00,,OVC012,0.00,VWS V14.01,2013-04-16 16:50:00,
2013-04-16 12:56:00,74.1,68.7,30.04,SW,219,8.9,16.0,83,0.00,,OVC012,0.00,VWS V14.01,2013-04-16 16:56:00,
2013-04-16 13:01:00,74.5,69.1,30.04,SW,218,10.3,18.3,83,0.00,,OVC012,0.00,VWS V14.01,2013-04-16 17:01:00,
2013-04-16 13:06:00,74.7,68.7,30.04,SSW,198,5.9,22.1,82,0.00,,OVC012,0.00,VWS V14.01,2013-04-16 17:06:00,
2013-04-16 13:11:00,75.0,69.0,30.04,West,261,6.6,12.2,82,0.00,,OVC012,0.00,VWS V14.01,2013-04-16 17:11:00,
2013-04-16 13:16:00,75.4,68.8,30.04,East,83,10.3,13.2,80,0.00,,OVC012,0.00,VWS V14.01,2013-04-16 17:16:00,
2013-04-16 13:21:00,75.4,68.1,30.04,SW,232,8.1,12.2,78,0.00,,OVC012,0.00,VWS V14.01,2013-04-16 17:21:00,
2013-04-16 13:26:00,75.4,67.5,30.04,SSW,202,8.9,11.3,76,0.00,,OVC012,0.00,VWS V14.01,2013-04-16 17:26:00,
2013-04-16 13:31:00,75.2,67.3,30.04,South,172,10.3,17.4,76,0.00,,OVC012,0.00,VWS V14.01,2013-04-16 17:31:00,
2013-04-16 13:36:00,75.4,68.1,30.04,SSE,152,18.1,23.0,78,0.00,,OVC012,0.00,VWS V14.01,2013-04-16 17:36:00,
2013-04-16 13:41:00,75.6,67.7,30.04,SW,220,6.6,8.5,76,0.00,,OVC012,0.00,VWS V14.01,2013-04-16 17:41:00,
2013-04-16 13:47:00,75.2,67.9,30.04,South,174,11.1,17.4,78,0.00,,OVC012,0.00,VWS V14.01,2013-04-16 17:47:00,
2013-04-16 13:52:00,74.8,67.6,30.04,South,173,13.3,16.9,78,0.00,,OVC012,0.00,VWS V14.01,2013-04-16 17:52:00,
2013-04-16 13:57:00,74.5,67.2,30.04,SW,235,6.6,8.5,78,0.00,,BKN100,0.00,VWS V14.01,2013-04-16 17:57:00,
2013-04-16 14:02:00,74.3,68.3,30.04,SSW,194,12.5,16.0,82,0.00,,BKN100,0.00,VWS V14.01,2013-04-16 18:02:00,
2013-04-16 14:07:00,74.1,68.1,30.04,SSW,212,5.2,13.2,82,0.00,,BKN100,0.00,VWS V14.01,2013-04-16 18:07:00,
2013-04-16 14:12:00,74.3,68.3,30.04,South,175,9.6,12.2,82,0.00,,BKN100,0.00,VWS V14.01,2013-04-16 18:12:00,
2013-04-16 14:17:00,74.5,67.9,30.04,WSW,256,4.4,12.2,80,0.00,,BKN100,0.00,VWS V14.01,2013-04-16 18:17:00,
2013-04-16 14:22:00,74.8,68.8,30.04,SSE,162,9.6,12.2,82,0.00,,BKN100,0.00,VWS V14.01,2013-04-16 18:22:00,
2013-04-16 14:28:00,75.2,69.2,30.04,South,185,6.6,12.2,82,0.00,,BKN100,0.00,VWS V14.01,2013-04-16 18:28:00,
2013-04-16 14:33:00,75.9,68.0,30.04,SW,226,13.3,16.9,76,0.00,,BKN100,0.00,VWS V14.01,2013-04-16 18:33:00,
2013-04-16 14:38:00,75.9,67.4,30.04,SSE,150,8.9,11.3,75,0.00,,OVC100,0.00,VWS V14.01,2013-04-16 18:38:00,
2013-04-16 14:43:00,75.4,66.8,30.04,South,190,8.1,14.1,75,0.00,,OVC100,0.00,VWS V14.01,2013-04-16 18:43:00,
2013-04-16 14:48:00,75.4,67.5,30.04,South,184,8.1,15.0,76,0.00,,OVC100,0.00,VWS V14.01,2013-04-16 18:48:00,
2013-04-16 14:54:00,75.0,67.8,30.04,SSW,205,8.9,22.1,78,0.00,,OVC100,0.00,VWS V14.01,2013-04-16 18:54:00,
2013-04-16 14:59:00,74.8,68.2,30.04,WSW,258,8.9,11.3,80,0.00,,OVC015CB,0.00,VWS V14.01,2013-04-16 18:59:00,
2013-04-16 15:04:00,74.5,67.9,30.04,West,259,5.2,11.3,80,0.00,,OVC015CB,0.00,VWS V14.01,2013-04-16 19:04:00,
2013-04-16 15:09:00,74.5,68.5,30.04,SSW,193,8.1,10.3,82,0.00,,OVC015CB,0.00,VWS V14.01,2013-04-16 19:09:00,
2013-04-16 15:14:00,74.7,68.7,30.04,SSW,200,8.1,17.4,82,0.00,,OVC015CB,0.00,VWS V14.01,2013-04-16 19:14:00,
2013-04-16 15:19:00,74.7,68.7,30.04,WSW,257,9.6,12.2,82,0.00,,OVC015CB,0.00,VWS V14.01,2013-04-16 19:19:00,
2013-04-16 15:25:00,74.8,68.8,30.04,SSW,194,8.9,13.2,82,0.00,,OVC015CB,0.00,VWS V14.01,2013-04-16 19:25:00,
2013-04-16 15:30:00,74.8,68.8,30.04,SSW,212,5.2,12.2,82,0.00,,OVC015CB,0.00,VWS V14.01,2013-04-16 19:30:00,
2013-04-16 15:35:00,75.4,69.4,30.04,South,190,8.9,11.3,82,0.00,,,0.00,VWS V14.01,2013-04-16 19:35:00,
2013-04-16 15:40:00,75.7,69.1,30.04,WSW,238,8.9,11.3,80,0.00,,,0.00,VWS V14.01,2013-04-16 19:40:00,
2013-04-16 15:45:00,75.9,69.3,30.04,SW,222,6.6,12.2,80,0.00,,,0.00,VWS V14.01,2013-04-16 19:45:00,
2013-04-16 15:50:00,76.5,69.2,30.04,SW,235,5.9,7.5,78,0.00,,,0.00,VWS V14.01,2013-04-16 19:50:00,
2013-04-16 15:55:00,77.0,69.7,30.04,SW,221,10.3,17.4,78,0.00,,,0.00,VWS V14.01,2013-04-16 19:55:00,
2013-04-16 16:01:00,77.4,68.8,30.04,SSW,193,5.9,7.5,75,0.00,,,0.00,VWS V14.01,2013-04-16 20:01:00,
2013-04-16 16:06:00,77.5,68.9,30.04,South,176,5.2,7.5,75,0.00,,,0.00,VWS V14.01,2013-04-16 20:06:00,
2013-04-16 16:11:00,77.7,67.7,30.04,WNW,302,8.1,10.3,71,0.00,,,0.00,VWS V14.01,2013-04-16 20:11:00,
2013-04-16 16:16:00,77.7,69.1,30.04,South,175,5.9,8.5,75,0.00,,,0.00,VWS V14.01,2013-04-16 20:16:00,
2013-04-16 16:21:00,77.9,69.3,30.04,West,265,4.4,8.5,75,0.00,,,0.00,VWS V14.01,2013-04-16 20:21:00,
2013-04-16 16:26:00,77.9,68.6,30.04,WSW,248,5.9,7.5,73,0.00,,,0.00,VWS V14.01,2013-04-16 20:26:00,
2013-04-16 16:31:00,77.7,67.7,30.04,West,263,8.9,11.3,71,0.00,,,0.00,VWS V14.01,2013-04-16 20:31:00,
2013-04-16 16:36:00,77.7,67.7,30.04,South,171,6.6,11.3,71,0.00,,,0.00,VWS V14.01,2013-04-16 20:36:00,
2013-04-16 16:42:00,77.4,68.1,30.04,WSW,245,0.0,0.0,73,0.00,,,0.00,VWS V14.01,2013-04-16 20:42:00,
2013-04-16 16:47:00,76.8,68.2,30.04,WSW,248,0.0,0.0,75,0.00,,,0.00,VWS V14.01,2013-04-16 20:47:00,
2013-04-16 16:52:00,76.8,72.6,30.04,WSW,257,5.2,6.6,87,0.00,,,0.00,VWS V14.01,2013-04-16 20:52:00,
2013-04-16 16:57:00,73.6,66.4,30.04,North,357,8.9,16.0,78,0.04,,,0.04,VWS V14.01,2013-04-16 20:57:00,
2013-04-16 17:02:00,70.0,64.7,30.04,North,0,9.6,16.0,83,0.04,,,0.04,VWS V14.01,2013-04-16 21:02:00,
2013-04-16 17:08:00,66.7,66.7,30.04,NNW,343,13.3,16.9,100,0.04,,,0.04,VWS V14.01,2013-04-16 21:08:00,
2013-04-16 17:13:00,65.1,65.1,30.04,North,7,8.1,10.3,100,0.04,,,0.04,VWS V14.01,2013-04-16 21:13:00,
2013-04-16 17:18:00,63.5,63.5,30.04,North,2,8.1,18.3,100,0.04,,,0.04,VWS V14.01,2013-04-16 21:18:00,
2013-04-16 17:23:00,62.8,62.8,30.07,North,0,5.9,11.3,100,0.12,,,0.12,VWS V14.01,2013-04-16 21:23:00,
2013-04-16 17:29:00,62.4,62.4,30.07,North,357,8.1,10.3,100,0.16,,,0.16,VWS V14.01,2013-04-16 21:29:00,
2013-04-16 17:34:00,62.1,62.1,30.07,North,0,4.4,13.2,100,0.16,,,0.16,VWS V14.01,2013-04-16 21:34:00,
2013-04-16 17:39:00,62.2,62.2,30.07,North,0,10.3,16.9,100,0.16,,,0.16,VWS V14.01,2013-04-16 21:39:00,
2013-04-16 17:44:00,62.4,62.4,30.07,NNW,348,6.6,8.5,100,0.16,,,0.16,VWS V14.01,2013-04-16 21:44:00,
2013-04-16 17:49:00,62.6,62.6,30.07,NNW,344,8.1,11.3,100,0.16,,,0.16,VWS V14.01,2013-04-16 21:49:00,
2013-04-16 17:54:00,62.6,62.6,30.07,NNE,26,4.4,7.5,100,0.16,,,0.16,VWS V14.01,2013-04-16 21:54:00,
2013-04-16 17:59:00,62.8,62.8,30.07,NNW,342,6.6,11.3,100,0.12,,,0.16,VWS V14.01,2013-04-16 21:59:00,
2013-04-16 18:04:00,63.0,63.0,30.07,NNW,340,8.1,12.2,100,0.12,,,0.16,VWS V14.01,2013-04-16 22:04:00,
2013-04-16 18:09:00,63.3,63.3,30.07,North,2,8.1,10.3,100,0.12,,,0.16,VWS V14.01,2013-04-16 22:09:00,
2013-04-16 18:15:00,63.5,63.5,30.07,NNW,345,6.6,11.3,100,0.20,,,0.24,VWS V14.01,2013-04-16 22:15:00,
2013-04-16 18:20:00,63.1,63.1,30.07,NNE,18,5.2,11.3,100,0.24,,,0.28,VWS V14.01,2013-04-16 22:20:00,
2013-04-16 18:25:00,63.0,63.0,30.07,NNW,343,8.9,11.3,100,0.16,,,0.28,VWS V14.01,2013-04-16 22:25:00,
2013-04-16 18:31:00,62.6,62.6,30.07,NE,36,6.6,11.3,100,0.12,,,0.28,VWS V14.01,2013-04-16 22:31:00,
2013-04-16 18:36:00,62.4,62.4,30.07,NE,49,6.6,10.3,100,0.12,,-RA,0.28,VWS V14.01,2013-04-16 22:36:00,
2013-04-16 18:41:00,62.6,62.6,30.07,North,2,9.6,12.2,100,0.12,,-RA,0.28,VWS V14.01,2013-04-16 22:41:00,
2013-04-16 18:46:00,62.6,62.6,30.07,North,357,8.9,13.2,100,0.12,,-RA,0.28,VWS V14.01,2013-04-16 22:46:00,
2013-04-16 18:51:00,62.4,62.4,30.07,NE,41,5.2,6.6,100,0.12,,-RA,0.28,VWS V14.01,2013-04-16 22:51:00,
2013-04-16 18:57:00,62.6,62.6,30.07,ESE,104,5.9,10.3,100,0.12,,-RA,0.28,VWS V14.01,2013-04-16 22:57:00,
2013-04-16 19:02:00,62.4,62.4,30.07,ENE,75,0.0,0.0,100,0.12,,-RA,0.28,VWS V14.01,2013-04-16 23:02:00,
2013-04-16 19:07:00,62.4,62.4,30.07,NE,44,0.0,7.5,100,0.12,,-RA,0.28,VWS V14.01,2013-04-16 23:07:00,
2013-04-16 19:12:00,62.2,62.2,30.07,North,357,6.6,11.3,100,0.12,,-RA,0.28,VWS V14.01,2013-04-16 23:12:00,
2013-04-16 19:17:00,62.2,62.2,30.07,East,87,4.4,5.6,100,0.04,,-RA,0.28,VWS V14.01,2013-04-16 23:17:00,
2013-04-16 19:22:00,62.1,62.1,30.07,NE,56,5.9,10.3,100,0.00,,-RA,0.28,VWS V14.01,2013-04-16 23:22:00,
2013-04-16 19:28:00,61.9,61.9,30.07,East,85,8.9,11.3,100,0.00,,-RA,0.28,VWS V14.01,2013-04-16 23:28:00,
2013-04-16 19:33:00,61.7,61.7,30.07,ENE,68,5.2,6.6,100,0.00,,-RA,0.28,VWS V14.01,2013-04-16 23:33:00,
2013-04-16 19:38:00,61.5,61.5,30.07,East,82,4.4,10.3,100,0.00,,-RA,0.28,VWS V14.01,2013-04-16 23:38:00,
2013-04-16 19:43:00,61.3,61.3,30.07,East,91,5.9,7.5,100,0.00,,-RA,0.28,VWS V14.01,2013-04-16 23:43:00,
2013-04-16 19:48:00,61.3,61.3,30.07,East,101,5.9,7.5,100,0.00,,-RA,0.28,VWS V14.01,2013-04-16 23:48:00,
2013-04-16 19:53:00,61.2,61.2,30.10,East,94,4.4,5.6,100,0.00,,-RA,0.28,VWS V14.01,2013-04-16 23:53:00,
2013-04-16 19:58:00,61.2,61.2,30.10,East,81,6.6,12.2,100,0.00,,-RA,0.28,VWS V14.01,2013-04-16 23:58:00,
2013-04-16 20:04:00,61.0,61.0,30.10,ESE,113,9.6,16.0,100,0.00,,-RA,0.28,VWS V14.01,2013-04-17 00:04:00,
2013-04-16 20:09:00,60.6,60.6,30.07,ENE,73,9.6,12.2,100,0.00,,OVC100,0.28,VWS V14.01,2013-04-17 00:09:00,
2013-04-16 20:14:00,60.6,60.6,30.07,ENE,64,6.6,12.2,100,0.00,,OVC100,0.28,VWS V14.01,2013-04-17 00:14:00,
2013-04-16 20:19:00,60.4,60.4,30.07,NNW,345,5.2,6.6,100,0.00,,OVC100,0.28,VWS V14.01,2013-04-17 00:19:00,
2013-04-16 20:24:00,60.3,60.3,30.10,ESE,112,5.2,8.5,100,0.00,,OVC100,0.28,VWS V14.01,2013-04-17 00:24:00,
2013-04-16 20:29:00,60.1,60.1,30.10,ENE,78,5.2,11.3,100,0.00,,OVC100,0.28,VWS V14.01,2013-04-17 00:29:00,
2013-04-16 20:35:00,59.9,59.9,30.10,East,100,6.6,8.5,100,0.00,,OVC100,0.28,VWS V14.01,2013-04-17 00:35:00,
2013-04-16 20:40:00,59.9,59.9,30.10,NE,55,5.9,10.3,100,0.00,,OVC100,0.28,VWS V14.01,2013-04-17 00:40:00,
2013-04-16 20:45:00,59.9,59.9,30.10,NE,55,0.0,6.6,100,0.04,,OVC100,0.31,VWS V14.01,2013-04-17 00:45:00,
2013-04-16 20:50:00,59.9,59.9,30.10,WNW,298,5.2,6.6,100,0.04,,BKN100,0.31,VWS V14.01,2013-04-17 00:50:00,
2013-04-16 20:55:00,60.1,60.1,30.13,West,262,3.7,5.6,100,0.16,,BKN100,0.43,VWS V14.01,2013-04-17 00:55:00,
2013-04-16 21:01:00,59.9,59.9,30.13,East,83,8.1,10.3,100,0.31,,BKN100,0.59,VWS V14.01,2013-04-17 01:01:00,
2013-04-16 21:06:00,59.7,59.7,30.13,NNW,332,5.2,7.5,100,0.31,,BKN100,0.59,VWS V14.01,2013-04-17 01:06:00,
2013-04-16 21:11:00,59.7,59.7,30.13,NE,53,0.0,0.0,100,0.31,,BKN100,0.59,VWS V14.01,2013-04-17 01:11:00,
2013-04-16 21:16:00,59.7,59.7,30.13,North,0,5.9,7.5,100,0.31,,BKN100,0.59,VWS V14.01,2013-04-17 01:16:00,
2013-04-16 21:21:00,59.7,59.7,30.13,ENE,70,4.4,5.6,100,0.31,,BKN100,0.59,VWS V14.01,2013-04-17 01:21:00,
2013-04-16 21:26:00,59.7,59.7,30.10,ENE,64,5.2,6.6,100,0.31,,BKN100,0.59,VWS V14.01,2013-04-17 01:26:00,
2013-04-16 21:31:00,59.5,59.5,30.10,NNE,29,5.2,6.6,100,0.31,,BKN100,0.59,VWS V14.01,2013-04-17 01:31:00,
2013-04-16 21:36:00,59.5,59.5,30.10,East,95,5.2,6.6,100,0.31,,BKN100,0.59,VWS V14.01,2013-04-17 01:36:00,
2013-04-16 21:41:00,59.4,59.4,30.10,ENE,69,4.4,9.4,100,0.31,,BKN100,0.59,VWS V14.01,2013-04-17 01:41:00,
2013-04-16 21:46:00,59.2,59.2,30.10,NE,49,8.9,11.3,100,0.28,,BKN100,0.59,VWS V14.01,2013-04-17 01:46:00,
2013-04-16 21:51:00,59.2,59.2,30.10,NE,53,6.6,11.3,100,0.28,,BKN100,0.59,VWS V14.01,2013-04-17 01:51:00,
2013-04-16 21:57:00,59.0,59.0,30.10,NE,37,8.1,13.2,100,0.16,,BKN100,0.59,VWS V14.01,2013-04-17 01:57:00,
2013-04-16 22:02:00,59.0,59.0,30.10,ENE,57,5.9,13.2,100,0.00,,BKN100,0.59,VWS V14.01,2013-04-17 02:02:00,
2013-04-16 22:07:00,59.0,59.0,30.10,NE,36,5.9,10.3,100,0.00,,BKN100,0.59,VWS V14.01,2013-04-17 02:07:00,
2013-04-16 22:12:00,59.0,59.0,30.10,ENE,66,10.3,13.2,100,0.00,,BKN100,0.59,VWS V14.01,2013-04-17 02:12:00,
2013-04-16 22:17:00,59.0,59.0,30.10,NE,34,6.6,10.3,100,0.00,,BKN100,0.59,VWS V14.01,2013-04-17 02:17:00,
2013-04-16 22:22:00,59.0,59.0,30.10,ENE,61,6.6,8.5,100,0.00,,BKN100,0.59,VWS V14.01,2013-04-17 02:22:00,
2013-04-16 22:28:00,59.0,59.0,30.10,East,98,5.2,6.6,100,0.00,,BKN100,0.59,VWS V14.01,2013-04-17 02:28:00,
2013-04-16 22:33:00,59.2,59.2,30.10,NE,42,8.1,10.3,100,0.04,,BKN100,0.63,VWS V14.01,2013-04-17 02:33:00,
2013-04-16 22:38:00,59.2,59.2,30.10,NNE,31,5.9,7.5,100,0.04,,BKN100,0.63,VWS V14.01,2013-04-17 02:38:00,
2013-04-16 22:43:00,59.2,59.2,30.13,NE,40,5.9,8.5,100,0.08,,OVC032,0.67,VWS V14.01,2013-04-17 02:43:00,
2013-04-16 22:48:00,59.2,59.2,30.13,East,85,0.0,6.6,100,0.08,,OVC032,0.67,VWS V14.01,2013-04-17 02:48:00,
2013-04-16 22:53:00,59.0,59.0,30.13,NNE,17,4.4,7.5,100,0.08,,OVC035,0.67,VWS V14.01,2013-04-17 02:53:00,
2013-04-16 22:59:00,59.2,59.2,30.13,NNE,20,3.7,5.6,100,0.08,,OVC035,0.67,VWS V14.01,2013-04-17 02:59:00,
2013-04-16 23:04:00,59.2,59.2,30.13,NE,37,5.2,6.6,100,0.08,,OVC035,0.67,VWS V14.01,2013-04-17 03:04:00,
2013-04-16 23:09:00,59.2,59.2,30.13,NE,45,5.9,7.5,100,0.08,,OVC035,0.67,VWS V14.01,2013-04-17 03:09:00,
2013-04-16 23:14:00,59.2,59.2,30.13,NE,35,3.7,4.7,100,0.08,,OVC035,0.67,VWS V14.01,2013-04-17 03:14:00,
2013-04-16 23:19:00,59.2,59.2,30.13,NE,41,5.2,8.5,100,0.08,,OVC035,0.67,VWS V14.01,2013-04-17 03:19:00,
2013-04-16 23:24:00,59.2,59.2,30.13,SE,134,4.4,7.5,100,0.08,,OVC035,0.67,VWS V14.01,2013-04-17 03:24:00,
2013-04-16 23:30:00,59.2,59.2,30.13,NE,48,5.2,7.5,100,0.08,,OVC035,0.67,VWS V14.01,2013-04-17 03:30:00,
2013-04-16 23:35:00,59.2,59.2,30.13,NNE,16,5.2,6.6,100,0.04,,OVC035,0.67,VWS V14.01,2013-04-17 03:35:00,
2013-04-16 23:40:00,59.2,59.2,30.13,NE,49,3.7,4.7,100,0.04,,OVC035,0.67,VWS V14.01,2013-04-17 03:40:00,
2013-04-16 23:45:00,59.2,59.2,30.13,ENE,77,5.9,7.5,100,0.00,,OVC028,0.67,VWS V14.01,2013-04-17 03:45:00,
2013-04-16 23:50:00,59.2,59.2,30.13,ESE,115,0.0,0.0,100,0.00,,OVC028,0.67,VWS V14.01,2013-04-17 03:50:00,
2013-04-16 23:55:00,59.2,59.2,30.10,ENE,76,0.0,0.0,100,0.00,,,0.67,VWS V14.01,2013-04-17 03:55:00,